Change the Weather History Date:

Wednesday, January 16, 2013

  Actual Average (VTBD) Record (VTBD)
Temperature  
Mean Temperature 84 °F -  
Max Temperature 93 °F 91 °F 94 °F (2013)
Min Temperature 74 °F 71 °F 60 °F (2009)
Cooling Degree Days 18    
Growing Degree Days 34 (Base 50)    
Moisture  
Dew Point 68 °F    
Average Humidity 62    
Maximum Humidity 87    
Minimum Humidity 39    
Precipitation  
Precipitation 0.00 in 0.02 in - ()
Sea Level Pressure  
Sea Level Pressure 29.92 in    
Wind  
Wind Speed 4 mph ()    
Max Wind Speed 9 mph    
Max Gust Speed -    
Visibility 5.3 miles    
Events      
Averages and records for this station are not official NWS values.
T = Trace of Precipitation, MM = Missing Value Source: Averaged Metar Reports

Daily Weather History Graph

Daily Weather History Graph

Search for Another Location

Airport or City:

Trip Planner

Search our weather history database for the weather conditions in past years. The results will help you decide how hot, cold, wet, or windy it might be!

Date:

Astronomy

Jan. 16, 2013 Rise Set
Actual Time 6:42 AM ICT 6:08 PM ICT
Civil Twilight 6:20 AM ICT 6:31 PM ICT
Nautical Twilight 5:54 AM ICT 6:57 PM ICT
Astronomical Twilight 5:28 AM ICT 7:23 PM ICT
Moon 9:59 AM ICT (1/16) 10:26 PM ICT (1/16)
Length of Visible Light 12h 11m
Length of Day
11h 25m
Waxing Crescent, 23% of the Moon is Illuminated
Jan 16
Waxing Crescent
Jan 19
First Quarter
Jan 27
Full
Feb 3
Last Quarter
Feb 10
New

Hourly Weather History & Observations

Time (ICT) Temp. Heat Index Dew Point Humidity Pressure Visibility Wind Dir Wind Speed Gust Speed Precip Events Conditions
12:00 AM 78.8 °F - 66.2 °F 65% 29.92 in - Calm Calm - N/A   Clear
12:30 AM 78.8 °F - 68.0 °F 69% 29.92 in - Calm Calm - N/A   Clear
1:00 AM 80 °F - 73 °F 73% 29.91 in 5 mi Calm Calm - -   Mist
1:00 AM 77.0 °F - 68.0 °F 74% 29.92 in - SW 2.3 mph - N/A   Clear
1:30 AM 77.0 °F - 68.0 °F 74% 29.92 in - West 2.3 mph - N/A   Clear
2:00 AM 77.0 °F - 69.8 °F 78% 29.92 in - Variable 2.3 mph - N/A   Clear
2:30 AM 75.2 °F - 68.0 °F 78% 29.92 in - NNE 5.8 mph - N/A   Clear
3:00 AM 77.0 °F - 68.0 °F 74% 29.92 in - ENE 5.8 mph - N/A   Clear
3:30 AM 77.0 °F - 68.0 °F 74% 29.92 in - ENE 5.8 mph - N/A   Clear
4:00 AM 77.0 °F - 66.2 °F 69% 29.92 in - East 5.8 mph - N/A   Clear
4:30 AM 77.0 °F - 68.0 °F 74% 29.92 in 5.0 mi ENE 5.8 mph - N/A   Clear
5:00 AM 77.0 °F - 68.0 °F 74% 29.95 in 5.0 mi East 4.6 mph - N/A   Scattered Clouds
5:30 AM 77.0 °F - 68.0 °F 74% 29.95 in 5.0 mi East 5.8 mph - N/A   Scattered Clouds
6:00 AM 77.0 °F - 68.0 °F 74% 29.95 in 3.1 mi East 5.8 mph - N/A   Mist
6:30 AM 77.0 °F - 68.0 °F 74% 29.95 in 3.1 mi NE 3.5 mph - N/A   Mist
7:00 AM 75 °F - 72 °F 87% 29.94 in 5 mi Calm Calm - -   Mist
7:00 AM 77.0 °F - 68.0 °F 74% 29.95 in 3.1 mi NE 5.8 mph - N/A   Mist
7:30 AM 77.0 °F - 68.0 °F 74% 29.98 in 3.1 mi NNE 4.6 mph - N/A   Clear
8:00 AM 77.0 °F - 68.0 °F 74% 29.98 in 3.7 mi ENE 6.9 mph - N/A   Unknown
8:30 AM 78.8 °F - 68.0 °F 69% 30.01 in 4.3 mi ENE 6.9 mph - N/A   Unknown
9:00 AM 80.6 °F 83.9 °F 69.8 °F 70% 30.01 in 5.6 mi NNE 4.6 mph - N/A   Unknown
9:30 AM 82.4 °F 86.3 °F 69.8 °F 66% 29.98 in - NE 8.1 mph - N/A   Clear
10:00 AM 84.2 °F 89.6 °F 71.6 °F 66% 29.98 in 6.2 mi NE 8.1 mph - N/A   Scattered Clouds
10:30 AM 84.2 °F 89.6 °F 71.6 °F 66% 29.98 in 6.2 mi Variable 8.1 mph - N/A   Scattered Clouds
11:00 AM 86.0 °F 91.8 °F 71.6 °F 62% 29.98 in 6.2 mi ENE 8.1 mph - N/A   Scattered Clouds
11:30 AM 86.0 °F 90.4 °F 69.8 °F 58% 29.95 in 6.2 mi NE 9.2 mph - N/A   Scattered Clouds
12:00 PM 86.0 °F 89.4 °F 68.0 °F 55% 29.95 in 6.2 mi North 9.2 mph - N/A   Scattered Clouds
12:30 PM 87.8 °F 91.4 °F 68.0 °F 52% 29.92 in 6.2 mi East 6.9 mph - N/A   Scattered Clouds
1:00 PM 91 °F - 69 °F 39% 29.88 in 5 mi Calm Calm - -   Haze
1:00 PM 87.8 °F 90.4 °F 66.2 °F 49% 29.92 in 6.2 mi East 8.1 mph - N/A   Scattered Clouds
1:30 PM 87.8 °F 91.4 °F 68.0 °F 52% 29.89 in 6.2 mi ENE 9.2 mph - N/A   Scattered Clouds
2:00 PM 89.6 °F 92.2 °F 66.2 °F 46% 29.86 in 6.2 mi ENE 8.1 mph - N/A   Scattered Clouds
2:30 PM 89.6 °F 91.1 °F 64.4 °F 43% 29.86 in 6.2 mi ENE 8.1 mph - N/A   Scattered Clouds
3:00 PM 89.6 °F 91.1 °F 64.4 °F 43% 29.86 in 6.2 mi East 8.1 mph - N/A   Scattered Clouds
3:30 PM 91.4 °F 93.2 °F 64.4 °F 41% 29.86 in 6.2 mi East 9.2 mph - N/A   Scattered Clouds
4:00 PM 91.4 °F 93.2 °F 64.4 °F 41% 29.86 in 6.2 mi ENE 9.2 mph - N/A   Scattered Clouds
4:30 PM 89.6 °F 91.1 °F 64.4 °F 43% 29.86 in 6.2 mi East 6.9 mph - N/A   Scattered Clouds
5:00 PM 91.4 °F 94.0 °F 66.2 °F 43% 29.86 in 6.2 mi NE 6.9 mph - N/A   Scattered Clouds
5:30 PM 89.6 °F 91.1 °F 64.4 °F 43% 29.89 in 6.2 mi East 8.1 mph - N/A   Scattered Clouds
6:00 PM 87.8 °F 89.4 °F 64.4 °F 46% 29.89 in 6.2 mi ENE 5.8 mph - N/A   Scattered Clouds
6:30 PM 87.8 °F 89.4 °F 64.4 °F 46% 29.89 in - ENE 4.6 mph - N/A   Clear
7:00 PM 86 °F - 70 °F 50% 29.88 in 5 mi SSE 2.3 mph - -   Haze
7:00 PM 84.2 °F 87.3 °F 68.0 °F 58% 29.89 in - North 4.6 mph - N/A   Clear
7:30 PM 82.4 °F 84.6 °F 66.2 °F 58% 29.92 in - North 4.6 mph - N/A   Clear
8:00 PM 82.4 °F 84.6 °F 66.2 °F 58% 29.92 in - Variable 2.3 mph - N/A   Clear
8:30 PM 82.4 °F 84.6 °F 66.2 °F 58% 29.92 in 6.2 mi North 5.8 mph - N/A   Scattered Clouds
9:00 PM 82.4 °F 85.4 °F 68.0 °F 62% 29.92 in 5.6 mi NE 3.5 mph - N/A   Unknown
9:30 PM 80.6 °F 83.9 °F 69.8 °F 70% 29.92 in 5.0 mi NE 3.5 mph - N/A   Scattered Clouds
10:00 PM 80.6 °F 83.9 °F 69.8 °F 70% 29.92 in 5.0 mi North 3.5 mph - N/A   Scattered Clouds
10:30 PM 82.4 °F 86.3 °F 69.8 °F 66% 29.92 in 5.0 mi East 5.8 mph - N/A   Scattered Clouds
11:00 PM 82.4 °F 86.3 °F 69.8 °F 66% 29.92 in 5.0 mi East 4.6 mph - N/A   Scattered Clouds
11:30 PM 82.4 °F 86.3 °F 69.8 °F 66% 29.92 in 5.0 mi East 5.8 mph - N/A   Scattered Clouds